STARLINK-35080

Last updated on Tue Sep 16 2025 00:02:08 GMT+0000 (Coordinated Universal Time)

1 65437U 25194D 25257.76881145 -.00196873 00000+0 -11288-2 0 9994 2 65437 97.5980 109.0688 0000126 358.3916 1.7350 15.79228762 3054
UTC large
Height (km)
Speed (km/s)
/
Latitude / Longitude
Inclination (degrees)
Orbital Period (minutes)
Azimuth
Elevation
Range (km)
Doppler Factor

Next 0 passes for location: London (51.5072 / 0.1276)

Sorry there are no passes over London.